| time (UTC) | temp F | wind direction | speed MPH | gust MPH | rain 1hr in | rain 24hr in | rain mn in | humidity % | barometer mb |
| 20260505153006 | 59 | 28 | 5.0 | 13.0 | 0.00 | 0.07 | 0.07 | 85 | 1023.1 |
| 20260505152005 | 59 | 30 | 7.0 | 13.0 | 0.00 | 0.07 | 0.07 | 85 | 1023.1 |
| 20260505125005 | 58 | 29 | 9.0 | 22.0 | 0.00 | 0.07 | 0.07 | 84 | 1023.6 |
| 20260505124005 | 57 | 46 | 8.0 | 18.0 | 0.00 | 0.07 | 0.07 | 87 | 1023.6 |
| 20260505123006 | 56 | 36 | 13.0 | 24.0 | 0.00 | 0.07 | 0.07 | 89 | 1023.7 |
| 20260505122005 | 55 | 43 | 15.0 | 27.0 | 0.00 | 0.07 | 0.07 | 91 | 1023.7 |
| 20260505121005 | 55 | 44 | 9.0 | 20.0 | 0.00 | 0.07 | 0.07 | 93 | 1023.8 |
| 20260505120006 | 54 | 43 | 11.0 | 25.0 | 0.00 | 0.07 | 0.07 | 95 | 1023.9 |
| 20260505115006 | 54 | 48 | 14.0 | 25.0 | 0.00 | 0.07 | 0.07 | 94 | 1023.9 |
| 20260505114006 | 54 | 41 | 15.0 | 22.0 | 0.00 | 0.07 | 0.07 | 96 | 1024.1 |
| 20260505113005 | 54 | 24 | 12.0 | 27.0 | 0.00 | 0.07 | 0.07 | 95 | 1024.0 |
| 20260505112005 | 54 | 31 | 16.0 | 27.0 | 0.00 | 0.07 | 0.07 | 93 | 1024.1 |
| 20260505102005 | 54 | 17 | 13.0 | 20.0 | 0.01 | 0.07 | 0.07 | 95 | 1024.2 |
| 20260505101005 | 53 | 32 | 10.0 | 15.0 | 0.01 | 0.07 | 0.07 | 96 | 1024.4 |
| 20260505100006 | 54 | 28 | 12.0 | 15.0 | 0.01 | 0.07 | 0.07 | 94 | 1024.5 |
| 20260505095005 | 55 | 27 | 10.0 | 15.0 | 0.00 | 0.06 | 0.06 | 94 | 1024.3 |
| 20260505094005 | 54 | 29 | 11.0 | 16.0 | 0.00 | 0.06 | 0.06 | 93 | 1024.4 |
| 20260505093005 | 55 | 39 | 11.0 | 15.0 | 0.00 | 0.06 | 0.06 | 92 | 1024.3 |
| 20260505092005 | 56 | 31 | 9.0 | 15.0 | 0.00 | 0.06 | 0.06 | 91 | 1024.3 |
| 20260505091005 | 56 | 30 | 6.0 | 9.0 | 0.00 | 0.06 | 0.06 | 89 | 1024.2 |
| 20260505090005 | 56 | 32 | 4.0 | 11.0 | 0.00 | 0.06 | 0.06 | 88 | 1024.3 |
| 20260505085005 | 56 | 34 | 8.0 | 14.0 | 0.00 | 0.06 | 0.06 | 87 | 1024.4 |
| 20260505083005 | 57 | 38 | 5.0 | 11.0 | 0.00 | 0.06 | 0.06 | 85 | 1024.2 |
| 20260505081005 | 56 | 357 | 5.0 | 11.0 | 0.00 | 0.06 | 0.06 | 85 | 1024.2 |
| 20260505080005 | 56 | 34 | 8.0 | 13.0 | 0.00 | 0.06 | 0.06 | 83 | 1024.0 |
| 20260505075006 | 55 | 46 | 10.0 | 13.0 | 0.00 | 0.06 | 0.06 | 89 | 1024.2 |
| 20260505074005 | 54 | 38 | 10.0 | 18.0 | 0.00 | 0.06 | 0.06 | 90 | 1024.2 |
| 20260505073005 | 53 | 31 | 8.0 | 21.0 | 0.00 | 0.06 | 0.06 | 93 | 1024.2 |
| 20260505072005 | 53 | 71 | 14.0 | 27.0 | 0.00 | 0.06 | 0.06 | 94 | 1024.3 |
| 20260505071005 | 53 | 43 | 11.0 | 24.0 | 0.00 | 0.06 | 0.06 | 92 | 1024.4 |
| 20260505070005 | 53 | 43 | 9.0 | 27.0 | 0.00 | 0.06 | 0.06 | 93 | 1024.6 |
| 20260505065005 | 53 | 43 | 15.0 | 23.0 | 0.04 | 0.06 | 0.06 | 93 | 1024.3 |
| 20260505064005 | 53 | 58 | 12.0 | 24.0 | 0.06 | 0.06 | 0.06 | 93 | 1024.1 |
| 20260505063005 | 53 | 48 | 14.0 | 27.0 | 0.06 | 0.06 | 0.06 | 92 | 1024.3 |
| 20260505061005 | 52 | 65 | 15.0 | 27.0 | 0.06 | 0.06 | 0.06 | 96 | 1024.2 |
| 20260505055006 | 52 | 42 | 9.0 | 18.0 | 0.02 | 0.02 | 0.02 | 95 | 1024.2 |
| 20260505054005 | 52 | 32 | 10.0 | 14.0 | 0.00 | 0.00 | 0.00 | 91 | 1024.0 |
| 20260505053005 | 53 | 24 | 4.0 | 11.0 | 0.00 | 0.00 | 0.00 | 91 | 1024.2 |
| 20260505052005 | 53 | 32 | 5.0 | 14.0 | 0.00 | 0.00 | 0.00 | 89 | 1024.2 |
| 20260505051005 | 53 | 35 | 7.0 | 8.0 | 0.00 | 0.00 | 0.00 | 88 | 1024.2 |
| 20260505041005 | 53 | 41 | 9.0 | 17.0 | 0.00 | 0.00 | 0.00 | 90 | 1024.0 |
| 20260505040005 | 53 | 37 | 11.0 | 17.0 | 0.00 | 0.00 | 0.00 | 91 | 1023.7 |
| 20260505035005 | 53 | 34 | 14.0 | 23.0 | 0.00 | 0.00 | 0.00 | 88 | 1023.8 |
| 20260505034005 | 54 | 64 | 13.0 | 21.0 | 0.00 | 0.00 | 0.00 | 85 | 1023.8 |
| 20260505033004 | 54 | 54 | 8.0 | 18.0 | 0.00 | 0.00 | 0.00 | 83 | 1024.1 |
| 20260505031005 | 54 | 81 | 5.0 | 17.0 | 0.00 | 0.00 | 0.00 | 83 | 1024.1 |
| 20260505030005 | 54 | 58 | 8.0 | 17.0 | 0.00 | 0.00 | 0.00 | 82 | 1024.2 |
| 20260505025005 | 54 | 46 | 6.0 | 16.0 | 0.00 | 0.00 | 0.00 | 82 | 1024.1 |
| 20260505024004 | 54 | 69 | 9.0 | 18.0 | 0.00 | 0.00 | 0.00 | 82 | 1024.2 |
| 20260505023004 | 54 | 52 | 6.0 | 15.0 | 0.00 | 0.00 | 0.00 | 83 | 1024.1 |
| 20260505022005 | 54 | 51 | 7.0 | 11.0 | 0.00 | 0.00 | 0.00 | 83 | 1024.1 |
| 20260505021005 | 55 | 58 | 5.0 | 14.0 | 0.00 | 0.00 | 0.00 | 80 | 1024.1 |
| 20260505020005 | 55 | 32 | 7.0 | 15.0 | 0.00 | 0.00 | 0.00 | 79 | 1024.3 |
| 20260505015005 | 56 | 54 | 8.0 | 13.0 | 0.00 | 0.00 | 0.00 | 78 | 1024.4 |
| 20260505014005 | 56 | 36 | 6.0 | 13.0 | 0.00 | 0.00 | 0.00 | 77 | 1024.2 |
| 20260505013005 | 56 | 46 | 5.0 | 14.0 | 0.00 | 0.00 | 0.00 | 77 | 1024.3 |
| 20260505012005 | 56 | 48 | 7.0 | 24.0 | 0.00 | 0.00 | 0.00 | 76 | 1024.5 |
| 20260505011005 | 56 | 65 | 9.0 | 22.0 | 0.00 | 0.00 | 0.00 | 75 | 1024.2 |
| 20260505010005 | 56 | 54 | 12.0 | 23.0 | 0.00 | 0.01 | 0.00 | 76 | 1024.2 |
| 20260505005005 | 56 | 55 | 11.0 | 20.0 | 0.00 | 0.01 | 0.00 | 79 | 1024.4 |
| 20260505004005 | 56 | 30 | 8.0 | 18.0 | 0.00 | 0.01 | 0.00 | 79 | 1024.4 |
| 20260505001005 | 54 | 42 | 11.0 | 18.0 | 0.00 | 0.06 | 0.00 | 87 | 1024.5 |
| 20260505000005 | 54 | 52 | 9.0 | 21.0 | 0.00 | 0.06 | 0.00 | 87 | 1024.6 |
| 20260504235005 | 54 | 43 | 8.0 | 21.0 | 0.00 | 0.06 | 0.00 | 86 | 1024.7 |
| 20260504234005 | 54 | 46 | 10.0 | 21.0 | 0.00 | 0.06 | 0.00 | 88 | 1024.9 |
| 20260504233005 | 54 | 21 | 8.0 | 25.0 | 0.00 | 0.06 | 0.00 | 89 | 1024.9 |
| 20260504232005 | 55 | 13 | 15.0 | 24.0 | 0.00 | 0.06 | 0.00 | 85 | 1025.0 |
| 20260504231005 | 55 | 39 | 15.0 | 24.0 | 0.00 | 0.06 | 0.00 | 85 | 1025.0 |
| 20260504230005 | 54 | 49 | 10.0 | 21.0 | 0.00 | 0.06 | 0.00 | 86 | 1025.0 |
| 20260504225004 | 54 | 57 | 11.0 | 20.0 | 0.00 | 0.06 | 0.00 | 87 | 1025.2 |
| 20260504224004 | 54 | 57 | 7.0 | 22.0 | 0.00 | 0.06 | 0.00 | 91 | 1025.2 |
| 20260504223005 | 54 | 48 | 11.0 | 18.0 | 0.00 | 0.06 | 0.00 | 91 | 1025.2 |
| 20260504222005 | 54 | 31 | 6.0 | 21.0 | 0.00 | 0.06 | 0.00 | 91 | 1025.3 |
| 20260504221005 | 54 | 33 | 8.0 | 18.0 | 0.00 | 0.06 | 0.00 | 92 | 1025.4 |
| 20260504220009 | 54 | 52 | 11.0 | 18.0 | 0.00 | 0.06 | 0.00 | 94 | 1025.4 |
| 20260504214005 | 55 | 78 | 10.0 | 15.0 | 0.00 | 0.06 | 0.06 | 92 | 1025.6 |
| 20260504213004 | 55 | 50 | 8.0 | 23.0 | 0.00 | 0.06 | 0.06 | 91 | 1025.7 |
| 20260504211005 | 54 | 52 | 7.0 | 18.0 | 0.00 | 0.06 | 0.06 | 95 | 1025.8 |
| 20260504210005 | 54 | 58 | 8.0 | 15.0 | 0.00 | 0.06 | 0.06 | 94 | 1025.6 |
| 20260504205005 | 54 | 43 | 11.0 | 16.0 | 0.00 | 0.06 | 0.06 | 93 | 1025.5 |
| 20260504204005 | 54 | 66 | 6.0 | 17.0 | 0.00 | 0.06 | 0.06 | 94 | 1025.5 |
| 20260504203005 | 55 | 59 | 11.0 | 18.0 | 0.00 | 0.06 | 0.06 | 93 | 1025.6 |
| 20260504202004 | 55 | 66 | 9.0 | 21.0 | 0.00 | 0.06 | 0.06 | 90 | 1025.6 |
| 20260504200005 | 55 | 51 | 8.0 | 21.0 | 0.00 | 0.06 | 0.06 | 89 | 1025.6 |
| 20260504194004 | 55 | 53 | 8.0 | 18.0 | 0.00 | 0.06 | 0.06 | 89 | 1025.4 |
| 20260504193004 | 55 | 75 | 8.0 | 20.0 | 0.00 | 0.06 | 0.06 | 92 | 1025.3 |
| 20260504192004 | 55 | 50 | 11.0 | 18.0 | 0.00 | 0.06 | 0.06 | 94 | 1025.1 |
| 20260504191004 | 55 | 45 | 8.0 | 20.0 | 0.00 | 0.06 | 0.06 | 96 | 1025.1 |
| 20260504190004 | 55 | 48 | 10.0 | 24.0 | 0.00 | 0.06 | 0.06 | 95 | 1025.1 |
| 20260504184005 | 56 | 67 | 11.0 | 22.0 | 0.00 | 0.06 | 0.06 | 93 | 1025.1 |
| 20260504183004 | 56 | 30 | 9.0 | 27.0 | 0.00 | 0.06 | 0.06 | 92 | 1025.1 |
| 20260504182004 | 56 | 33 | 12.0 | 24.0 | 0.00 | 0.06 | 0.06 | 91 | 1025.2 |
| 20260504181004 | 56 | 52 | 9.0 | 23.0 | 0.00 | 0.06 | 0.06 | 93 | 1025.3 |
| 20260504180004 | 56 | 33 | 8.0 | 18.0 | 0.00 | 0.06 | 0.06 | 91 | 1025.3 |
| 20260504175004 | 56 | 57 | 8.0 | 21.0 | 0.00 | 0.06 | 0.06 | 93 | 1025.3 |
| 20260504173004 | 56 | 47 | 11.0 | 20.0 | 0.00 | 0.06 | 0.06 | 92 | 1025.0 |
| 20260504172005 | 56 | 43 | 8.0 | 20.0 | 0.00 | 0.06 | 0.06 | 92 | 1025.1 |
| 20260504171004 | 56 | 19 | 6.0 | 17.0 | 0.00 | 0.06 | 0.06 | 92 | 1025.2 |